sat.trackr.live / text

‹ back to catalog

QIANFAN-120

NORAD 68647 · 2026-075M

PAYLOAD ACTIVE UNKNOWN

§ Identity

Operator
Country
PRC
Launch date
2026-04-07
Launch site
WSC
Launch vehicle
Mass (kg)
RCS (m²)

External: N2YO · Heavens-Above · Gunter

§ Orbital elements

Epoch: 2026-05-24T10:09:02.225088Z

Period
105.42 min
Inclination
88.9864°
Eccentricity
0.0010881
Mean motion
13.66001667 rev/d
Perigee alt
1,005.9 km
Apogee alt
1,022.0 km
Semi-major
7,392.1 km
B*
3.7990e-5
RAAN
323.4377°
Arg perigee
80.3697°
Mean anomaly
279.8692°
Rev number
659

§ Raw data

QIANFAN-1201 68647U 26075M   26144.42294242  .00000044  00000+0  37990-4 0  99962 68647  88.9864 323.4377 0010881  80.3697 279.8692 13.66001667  6595

JSON: /api/v1/satellites/68647 · /tle

For live sub-satellite position, see the globe view (requires WebGL).

§ Visibility from observer

Set your observer location to see the next 7 days of passes ≥ 10°. The values pass through the URL so the page stays shareable.

No JS? Fill the form by hand. The geolocation button needs JavaScript.